User: anonymous   Login
Location: Unspecified
(0.0000°N, 0.0000°E)
Time: 23:57:25
(UTC+00:00)
Language:

SEEDS - Orbit

View from above orbital plane
View from above orbital plane
View from above satellite
View from above satellite

Ground track
Ground track

The orbit data is extracted from the following two-line orbital elements,

1 32791U 08021J   22269.18304653  .00002476  00000-0  24243-3 0  9991
2 32791  97.6222 242.3056 0011693 207.7166 152.3432 14.93125205782226
Epoch (UTC): 26 September 2022 04:23:35
Eccentricity: 0.0011693
inclination: 97.6222°
perigee height: 580 km
apogee height: 596 km
right ascension of ascending node: 242.3056°
argument of perigee: 207.7166°
revolutions per day: 14.93125205
mean anomaly at epoch: 152.3432°
orbit number at epoch: 78222

The dashed part of the orbit path shows where the satellite is in the earth's shadow,  

DLR